Zurück zum Katalog

CZ-2D DEB

AktivPO
NORAD 44610·DEBRIS·🇨🇳 China

Gestartet Oct 9, 2017 von Jiuquan Satellite Launch Center

Loading…

Nächste Überflüge (nächste 24 Stunden)

TLE

AktuellSource: Space-Track

Epoche: Sep 13, 2026, 13:54 UTC

1 44610U 17060C   26256.57971319  .00004646  00000-0  28898-3 0  9990
2 44610  98.2262 109.6725 0017149 152.7889 207.4241 15.10066895482586

Verfolge CZ-2D DEB in Echtzeit mit AllMySat

Download on the App Store